Location: Ida Center
(41.8662°N, 83.5713°W)
Time: 21:39:53
(UTC+00:00)

NOSS 2-3 (C) - Pass Details

Date: 17 November 2019
Orbit: 594 x 1618 km, 63.4° (Epoch: 01 December)

Event Time Altitude Azimuth Distance (km) Brightness Sun altitude
Rises 22:40:19 0° 188° (S) 2,815 7.4 -5.7°
Reaches altitude 10° 22:42:38 10° 178° (S) 1,933 6.4 -6.1°
Maximum altitude 22:46:26 32° 115° (ESE) 1,089 4.5 -6.8°
Drops below altitude 10° 22:50:40 10° 52° (NE) 2,170 5.7 -7.5°
Enters shadow 22:51:21 - 49° (NE) 2,427 6.0 -7.6°
